Regional Weather Roundup
Issued by NWS Little Rock, AR

Home | Current Version | Previous Version | Graphics & Text | Print | Product List | Glossary On
Versions: 1 2 3 4 5 6 7 8 9 10 11 12 13 14 15 16 17 18 19 20 21 22 23 24 25 26 27 28 29 30 31 32 33 34 35 36 37 38 39 40 41 42 43 44 45 46 47 48 49
000
ASUS44 KLZK 292005
RWRLZK

WEATHER ROUNDUP FOR ARKANSAS
NATIONAL WEATHER SERVICE LITTLE ROCK AR
300 PM CDT FRI AUG 29 2014

NOTE: "FAIR" INDICATES FEW OR NO CLOUDS BELOW 12,000 FEET WITH NO
SIGNIFICANT WEATHER AND/OR OBSTRUCTIONS TO VISIBILITY.

ARZ001-003-010-029-292100-
NORTHWEST ARKANSAS

CITY           SKY/WX    TMP DP  RH WIND       PRES   REMARKS
FAYETTEVILLE   RAIN      76  68  76 S12       29.94R
FORT SMITH     CLOUDY    78  71  79 SW5       29.91F
HARRISON       CLOUDY    74  66  76 S13G24    29.95R
BENTONVILLE    CLOUDY    84  64  51 W9        29.94S HX  86
ROGERS         PTSUNNY   83  63  50 W12       29.93F
SILOAM SPGS      N/A     82  64  54 SW8       29.93F
HIGHFILL       CLOUDY    85  64  49 SW7       29.92F HX  86
SPRINGDALE     PTSUNNY   82  64  54 SW12      29.95S
$$

ARZ004-005-016-292100-
NORTH CENTRAL ARKANSAS

CITY           SKY/WX    TMP DP  RH WIND       PRES   REMARKS
BATESVILLE     PTSUNNY   91  66  43 S8G18     29.90F HX  94
FLIPPIN        MOSUNNY   86  64  48 SW30G39   29.91R HX  87
MTN HOME       PTSUNNY   86  68  54 S9        29.89F HX  89
$$

ARZ040-041-292100-
WEST CENTRAL ARKANSAS

CITY           SKY/WX    TMP DP  RH WIND       PRES   REMARKS
MENA           PTSUNNY   81  73  78 W7        29.95S HX  85
MOUNT IDA      PTSUNNY   88  71  57 VRB6      29.90F HX  94
$$

ARZ009-017-025-026-028-292100-
NORTHEAST ARKANSAS

CITY           SKY/WX    TMP DP  RH WIND       PRES   REMARKS
CORNING        LGT RAIN  86  72  62 W6        29.91F HX  92
JONESBORO      MOSUNNY   91  69  48 S12       29.91F HX  96
NEWPORT        SUNNY     93  71  48 S12       29.92F HX  99
WALNUT RIDGE   MOSUNNY   90  70  51 S10       29.90F HX  95
BLYTHEVILLE    MOSUNNY   83  70  64 SW13G21   29.93F HX  87
$$

ARZ022-023-033-042-044-292100-
CENTRAL ARKANSAS

CITY           SKY/WX    TMP DP  RH WIND       PRES   REMARKS
LITTLE ROCK    PTSUNNY   86  68  54 S16G26    29.92F HX  89
N LITTLE ROCK  PTSUNNY   88  71  57 S13G22    29.92F HX  94
JACKSONVILLE   SUNNY     89  73  58 S8        29.91F HX  97
SEARCY         SUNNY     92  73  53 W12       29.93F HX 100
HOT SPRINGS    PTSUNNY   89  70  53 VRB6G17   29.92F HX  94
RUSSELLVILLE   MOSUNNY   88  72  58 VRB5      29.90F HX  94
CLINTON        PTSUNNY   81  77  89 SE3       29.91F FOG     HX  88
$$

ARZ036-292100-
EAST ARKANSAS

CITY           SKY/WX    TMP DP  RH WIND       PRES   REMARKS
WEST MEMPHIS   PTSUNNY   90  70  51 S16       29.93F HX  95
$$

ARZ050-053-066-070-073-292100-
SOUTHWEST ARKANSAS

CITY           SKY/WX    TMP DP  RH WIND       PRES   REMARKS
ARKADELPHIA    FAIR      92  73  53 S9        29.90F HX 100
CAMDEN         MOSUNNY   91  68  46 S7        29.90F HX  95
TEXARKANA      MOSUNNY   92  66  42 SW12      29.88F HX  94
EL DORADO      SUNNY     89  71  55 S8        29.91F HX  95
DE QUEEN       PTSUNNY   86  73  65 SW8       29.88F HX  93
$$

ARZ056-057-069-292100-
SOUTHEAST ARKANSAS

CITY           SKY/WX    TMP DP  RH WIND       PRES   REMARKS
PINE BLUFF     MOSUNNY   90  70  51 S8        29.92F HX  95
STUTTGART      PTSUNNY   90  72  55 SE6       29.93F HX  96
MONTICELLO     PTSUNNY   88  71  57 S7        29.94S HX  94

$$




USA.gov is the U.S. government's official web portal to all federal, state and local government web resources and services.